This demonstration page uses our WeatherBlox Daily Observations layout. Learn more.

36.17497, -115.13722

Hourly Observations for April 15, 2015

Temp ( °F °C ) Dew Point ( °F °C ) Humidity (%) Winds ( mph kmh ) Pressure ( in mb ) Visibility ( mi km ) Precip ( " mm )
12:53 am 00:53 Clear 54 12.2 2 -16.7 12 12 N 8 13 30.16 1021 10 16.0934 0 0
1:53 am 01:53 Clear 53 11.7 4 -15.6 13 13 NNW 21 33 30.13 1020 10 16.0934 0 0
2:53 am 02:53 Clear 52 11.1 4 -15.6 14 14 NW 20 31 30.15 1021 10 16.0934 0 0
3:53 am 03:53 Clear 51 10.6 5 -15 15 15 N 10 17 30.15 1021 10 16.0934 0 0
4:53 am 04:53 Clear 50 10 6 -14.4 17 17 N 10 17 30.16 1021 10 16.0934 0 0
5:53 am 05:53 Clear 50 10 7 -13.9 17 17 N 14 22 30.18 1022 10 16.0934 0 0
6:53 am 06:53 Sunny 50 10 9 -12.8 19 19 NNE 8 13 30.2 1023 10 16.0934 0 0
7:53 am 07:53 Sunny 51 10.6 8 -13.3 17 17 NE 16 26 30.22 1023 10 16.0934 0 0
8:03 am 08:03 Sunny 52 11 9 -13 17 17 E 16 26 30.18 1022 10 16.0934 0 0
8:53 am 08:53 Sunny 54 12.2 6 -14.4 14 14 NNW 16 26 30.22 1023 10 16.0934 0 0
9:53 am 09:53 Sunny 56 13.3 3 -16.1 11 11 N 18 30 30.2 1023 10 16.0934 0 0
10:53 am 10:53 Sunny 57 13.9 0 -17.8 10 10 NNW 24 39 30.18 1022 10 16.0934 0 0
11:53 am 11:53 Sunny 59 15 1 -17.2 9 9 NNW 22 35 30.16 1021 10 16.0934 0 0
12:53 pm 12:53 Sunny 62 16.7 -2 -18.9 7 7 N 20 31 30.12 1020 10 16.0934 0 0
1:53 pm 13:53 Sunny 64 17.8 -5 -20.6 6 6 NNW 20 31 30.09 1019 10 16.0934 0 0
2:53 pm 14:53 Sunny 65 18.3 -7 -21.7 5 5 N 20 31 30.05 1018 10 16.0934 0 0
3:53 pm 15:53 Sunny 67 19.4 -5 -20.6 5 5 NNE 17 28 30.03 1017 10 16.0934 0 0
4:51 pm 16:51 Sunny 66 19 -6 -21 5 5 NNW 13 20 29.94 1014 10 16.0934 0 0
4:53 pm 16:53 Sunny 66 18.9 -6 -21.1 5 5 NNW 15 24 30.03 1017 10 16.0934 0 0
5:16 pm 17:16 Sunny 66 18.9 -4 -20 6 6 NNE 12 19 29.94 1014 10 16.0934 0 0
5:53 pm 17:53 Sunny 65 18.3 -2 -18.9 6 6 N 17 28 30.03 1017 10 16.0934 0 0
6:53 pm 18:53 Sunny 63 17.2 -3 -19.4 7 7 N 16 26 30.04 1017 10 16.0934 0 0
7:53 pm 19:53 Clear 61 16.1 -7 -21.7 6 6 N 17 28 30.05 1018 10 16.0934 0 0
8:53 pm 20:53 Clear 58 14.4 -7 -21.7 7 7 NE 14 22 30.1 1019 10 16.0934 0 0
9:53 pm 21:53 Clear 57 13.9 -5 -20.6 7 7 NNE 7 11 30.13 1020 10 16.0934 0 0
10:53 pm 22:53 Clear 56 13.3 -2 -18.9 9 9 N 14 22 30.13 1020 10 16.0934 0 0
11:53 pm 23:53 Clear 56 13.3 1 -17.2 10 10 N 15 24 30.11 1020 10 16.0934 0 0

Powered by AerisWeather